Location: *
(48.8780°N, 19.2358°E)
Time: 17:15:10
(UTC+00:00)

SPOT 3 Rocket - Pass Details

Date: 18 October 2019
Orbit: 779 x 794 km, 98.8° (Epoch: 21 November)

Event Time Altitude Azimuth Distance (km) Brightness Sun altitude
Exits shadow 18:17:55 74° 107° (ESE) 825 3.4 -25.2°
Maximum altitude 18:18:12 77° 72° (ENE) 816 3.4 -25.2°
Drops below altitude 10° 18:23:25 10° 348° (NNW) 2,368 6.3 -26.1°
Sets 18:25:46 0° 347° (NNW) 3,304 7.2 -26.4°
